IBE0449 LEMD-LESO

Flight info

Callsign IBE0449
Flight time 0h 39m
Altitude 32000
Route RBO N867 GASMO T430 LPA/N0335F140 T430 DITOP N10 SSN
Aircraft A319/M-SDE3FGHIRWY/LB1

Departure

Time 2026-05-04 18:13
Airport Adolfo Suárez Madrid–Barajas Airport (LEMD)

Arrival

Time 2026-05-04 18:52
Airport San Sebastián Airport (LESO)
Time Latitude Longitude Altitude Speed Heading
2026-05-04 17:59 40.49043 -3.58968 2029 ft 0 kts 271°
2026-05-04 17:59 40.49043 -3.58956 2022 ft 4 kts 271°
2026-05-04 18:00 40.49042 -3.58921 2030 ft 4 kts 270°
2026-05-04 18:00 40.49048 -3.58890 2022 ft 4 kts 220°
2026-05-04 18:00 40.49066 -3.58880 2022 ft 2 kts 180°
2026-05-04 18:00 40.49078 -3.58880 2022 ft 0 kts 180°
2026-05-04 18:02 40.49077 -3.58880 2022 ft 1 kts 180°
2026-05-04 18:02 40.49066 -3.58880 2022 ft 2 kts 181°
2026-05-04 18:03 40.49044 -3.58880 2025 ft 4 kts 179°
2026-05-04 18:03 40.49014 -3.58880 2025 ft 4 kts 179°
2026-05-04 18:03 40.48994 -3.58879 2032 ft 2 kts 180°
2026-05-04 18:03 40.48987 -3.58879 2026 ft 0 kts 180°
2026-05-04 18:04 40.48954 -3.58879 2028 ft 6 kts 179°
2026-05-04 18:05 40.48897 -3.58878 2025 ft 10 kts 179°
2026-05-04 18:05 40.48811 -3.58877 2022 ft 13 kts 180°
2026-05-04 18:05 40.48759 -3.58807 2029 ft 13 kts 89°
2026-05-04 18:05 40.48759 -3.58674 2029 ft 16 kts 89°
2026-05-04 18:06 40.48761 -3.58338 2010 ft 22 kts 89°
2026-05-04 18:06 40.48762 -3.58163 2007 ft 11 kts 90°
2026-05-04 18:06 40.48782 -3.58057 2001 ft 13 kts 30°
2026-05-04 18:07 40.48857 -3.58008 2001 ft 14 kts 78°
2026-05-04 18:07 40.48857 -3.57862 1996 ft 18 kts 89°
2026-05-04 18:07 40.48858 -3.57680 1991 ft 21 kts 90°
2026-05-04 18:07 40.48859 -3.57478 1988 ft 23 kts 89°
2026-05-04 18:08 40.48860 -3.57256 1984 ft 25 kts 90°
2026-05-04 18:08 40.48860 -3.57015 1980 ft 27 kts 90°
2026-05-04 18:08 40.48861 -3.56760 1975 ft 29 kts 90°
2026-05-04 18:08 40.48862 -3.56514 1969 ft 22 kts 90°
2026-05-04 18:09 40.48904 -3.56246 1962 ft 12 kts
2026-05-04 18:09 40.49081 -3.56245 1962 ft 13 kts 359°
2026-05-04 18:10 40.49177 -3.56246 1966 ft 14 kts
2026-05-04 18:10 40.49279 -3.56246 1961 ft 16 kts 359°
2026-05-04 18:10 40.49403 -3.56247 1962 ft 20 kts 359°
2026-05-04 18:10 40.49551 -3.56249 1965 ft 22 kts 359°
2026-05-04 18:11 40.49705 -3.56248 1961 ft 22 kts
2026-05-04 18:11 40.49850 -3.56249 1961 ft 13 kts
2026-05-04 18:11 40.49922 -3.56243 1961 ft 10 kts 21°
2026-05-04 18:11 40.49939 -3.56146 1959 ft 13 kts 89°
2026-05-04 18:12 40.49951 -3.56023 1958 ft 14 kts 69°
2026-05-04 18:12 40.50013 -3.55937 1961 ft 14 kts 24°
2026-05-04 18:12 40.50174 -3.55921 1961 ft 50 kts
2026-05-04 18:12 40.50788 -3.55926 1964 ft 123 kts 360°
2026-05-04 18:13 40.51844 -3.55932 1977 ft 175 kts 358°
2026-05-04 18:13 40.53040 -3.55928 2697 ft 172 kts 356°
2026-05-04 18:13 40.55444 -3.55379 4104 ft 181 kts 14°
2026-05-04 18:14 40.56660 -3.54883 4798 ft 184 kts 13°
2026-05-04 18:14 40.57904 -3.54388 5377 ft 195 kts 12°
2026-05-04 18:14 40.58803 -3.54038 5580 ft 212 kts 13°
2026-05-04 18:15 40.61528 -3.51433 6417 ft 270 kts 38°
2026-05-04 18:15 40.64524 -3.48057 8029 ft 291 kts 38°
2026-05-04 18:15 40.66085 -3.46314 8944 ft 297 kts 38°
2026-05-04 18:16 40.67678 -3.44538 9841 ft 302 kts 38°
2026-05-04 18:16 40.69320 -3.42705 10452 ft 321 kts 38°
2026-05-04 18:16 40.71088 -3.40737 10877 ft 342 kts 38°
2026-05-04 18:17 40.74807 -3.36575 12394 ft 357 kts 38°
2026-05-04 18:17 40.76717 -3.34431 13198 ft 362 kts 38°
2026-05-04 18:17 40.80582 -3.30088 14727 ft 371 kts 38°
2026-05-04 18:18 40.82558 -3.27868 15456 ft 376 kts 38°
2026-05-04 18:18 40.84709 -3.25889 16161 ft 377 kts 26°
2026-05-04 18:18 40.87108 -3.24484 16863 ft 378 kts 15°
2026-05-04 18:18 40.89666 -3.23696 17555 ft 378 kts
2026-05-04 18:19 40.94918 -3.22543 18884 ft 386 kts
2026-05-04 18:19 40.97584 -3.21949 19534 ft 391 kts
2026-05-04 18:19 41.00279 -3.21349 20148 ft 395 kts
2026-05-04 18:20 41.03001 -3.20740 20763 ft 399 kts
2026-05-04 18:20 41.05748 -3.20120 21363 ft 402 kts
2026-05-04 18:20 41.08490 -3.19499 21957 ft 406 kts
2026-05-04 18:20 41.11294 -3.18867 22527 ft 411 kts
2026-05-04 18:21 41.14123 -3.18231 23105 ft 414 kts
2026-05-04 18:21 41.16976 -3.17588 23658 ft 418 kts
2026-05-04 18:21 41.19855 -3.16938 24194 ft 421 kts
2026-05-04 18:21 41.22758 -3.16281 24686 ft 425 kts
2026-05-04 18:22 41.25686 -3.15614 25169 ft 429 kts
2026-05-04 18:22 41.28638 -3.14942 25630 ft 432 kts
2026-05-04 18:22 41.31617 -3.14264 26104 ft 435 kts
2026-05-04 18:22 41.34612 -3.13587 26562 ft 438 kts
2026-05-04 18:23 41.37626 -3.12910 27013 ft 441 kts
2026-05-04 18:23 41.40661 -3.12226 27445 ft 444 kts
2026-05-04 18:23 41.43718 -3.11531 27869 ft 447 kts
2026-05-04 18:23 41.46793 -3.10827 28272 ft 450 kts
2026-05-04 18:24 41.49896 -3.10121 28681 ft 453 kts
2026-05-04 18:24 41.53013 -3.09418 29074 ft 456 kts
2026-05-04 18:24 41.56149 -3.08711 29457 ft 459 kts
2026-05-04 18:24 41.59311 -3.07998 29826 ft 461 kts
2026-05-04 18:25 41.62442 -3.07290 30183 ft 464 kts
2026-05-04 18:25 41.65634 -3.06563 30540 ft 466 kts
2026-05-04 18:25 41.68833 -3.05800 30859 ft 471 kts
2026-05-04 18:25 41.72010 -3.04537 31168 ft 480 kts 17°
2026-05-04 18:26 41.75045 -3.02618 31481 ft 488 kts 26°
2026-05-04 18:26 41.77894 -3.00073 31781 ft 494 kts 33°
2026-05-04 18:26 41.80667 -2.97352 31965 ft 493 kts 33°
2026-05-04 18:26 41.83399 -2.94676 32002 ft 477 kts 33°
2026-05-04 18:27 41.86042 -2.92089 31998 ft 465 kts 33°
2026-05-04 18:27 41.88640 -2.89552 31999 ft 461 kts 33°
2026-05-04 18:27 41.93810 -2.84499 32001 ft 458 kts 33°
2026-05-04 18:28 41.98958 -2.79449 31999 ft 458 kts 33°
2026-05-04 18:28 42.04105 -2.74385 31998 ft 457 kts 34°
2026-05-04 18:29 42.09194 -2.69362 32000 ft 455 kts 34°
2026-05-04 18:29 42.14294 -2.64319 32003 ft 455 kts 34°
2026-05-04 18:30 42.21956 -2.56725 32004 ft 455 kts 34°
2026-05-04 18:31 42.27071 -2.51644 31650 ft 455 kts 34°
2026-05-04 18:31 42.29624 -2.49106 31409 ft 455 kts 34°
2026-05-04 18:31 42.32168 -2.46574 31164 ft 455 kts 34°
2026-05-04 18:31 42.34714 -2.44037 30910 ft 455 kts 34°
2026-05-04 18:32 42.37256 -2.41499 30660 ft 453 kts 34°
2026-05-04 18:32 42.39782 -2.38975 30275 ft 449 kts 34°
2026-05-04 18:32 42.42288 -2.36465 29701 ft 447 kts 34°
2026-05-04 18:32 42.44779 -2.33965 29142 ft 444 kts 34°
2026-05-04 18:33 42.47251 -2.31480 28625 ft 441 kts 34°
2026-05-04 18:33 42.49706 -2.29019 28134 ft 437 kts 34°
2026-05-04 18:33 42.52111 -2.26607 27660 ft 433 kts 34°
2026-05-04 18:33 42.54521 -2.24188 27190 ft 429 kts 35°
2026-05-04 18:34 42.56915 -2.21784 26726 ft 425 kts 35°
2026-05-04 18:34 42.59281 -2.19403 26281 ft 422 kts 35°
2026-05-04 18:34 42.61629 -2.17039 25833 ft 418 kts 35°
2026-05-04 18:34 42.63958 -2.14691 25361 ft 415 kts 35°
2026-05-04 18:35 42.66272 -2.12359 24919 ft 413 kts 35°
2026-05-04 18:35 42.68568 -2.10038 24445 ft 410 kts 35°
2026-05-04 18:35 42.70847 -2.07728 23978 ft 407 kts 36°
2026-05-04 18:35 42.73114 -2.05429 23492 ft 405 kts 36°
2026-05-04 18:36 42.75367 -2.03145 23006 ft 403 kts 36°
2026-05-04 18:36 42.77608 -2.00872 22521 ft 401 kts 36°
2026-05-04 18:36 42.79837 -1.98607 22037 ft 398 kts 36°
2026-05-04 18:36 42.82024 -1.96379 21560 ft 396 kts 36°
2026-05-04 18:37 42.84255 -1.94105 21071 ft 394 kts 36°
2026-05-04 18:37 42.86412 -1.91908 20599 ft 391 kts 36°
2026-05-04 18:37 42.88583 -1.89697 20121 ft 388 kts 36°
2026-05-04 18:37 42.90741 -1.87500 19645 ft 386 kts 36°
2026-05-04 18:38 42.92882 -1.85318 19162 ft 383 kts 36°
2026-05-04 18:38 42.95011 -1.83146 18681 ft 381 kts 36°
2026-05-04 18:38 42.97124 -1.80988 18213 ft 378 kts 36°
2026-05-04 18:38 42.99304 -1.79015 17744 ft 375 kts 26°
2026-05-04 18:39 43.01716 -1.77759 17294 ft 369 kts 12°
2026-05-04 18:39 43.04239 -1.77292 16847 ft 364 kts 358°
2026-05-04 18:39 43.06735 -1.77590 16410 ft 358 kts 347°
2026-05-04 18:39 43.09183 -1.78146 15975 ft 356 kts 347°
2026-05-04 18:40 43.11617 -1.78691 15538 ft 353 kts 347°
2026-05-04 18:40 43.14036 -1.79227 15122 ft 351 kts 348°
2026-05-04 18:40 43.16437 -1.79757 14697 ft 348 kts 348°
2026-05-04 18:40 43.18821 -1.80280 14266 ft 345 kts 348°
2026-05-04 18:41 43.21187 -1.80802 13842 ft 342 kts 348°
2026-05-04 18:41 43.23529 -1.81324 13414 ft 340 kts 348°
2026-05-04 18:41 43.25852 -1.81850 12992 ft 337 kts 347°
2026-05-04 18:41 43.28156 -1.82367 12561 ft 334 kts 348°
2026-05-04 18:42 43.30361 -1.83112 12141 ft 328 kts 336°
2026-05-04 18:42 43.32351 -1.84516 11723 ft 319 kts 323°
2026-05-04 18:42 43.34109 -1.86443 10933 ft 326 kts 317°
2026-05-04 18:42 43.35832 -1.88448 10529 ft 321 kts 317°
2026-05-04 18:43 43.37518 -1.90401 10293 ft 311 kts 317°
2026-05-04 18:43 43.39132 -1.92262 10111 ft 296 kts 317°
2026-05-04 18:43 43.40684 -1.94051 9601 ft 288 kts 318°
2026-05-04 18:43 43.42345 -1.95551 8995 ft 287 kts 337°
2026-05-04 18:44 43.44303 -1.95952 8393 ft 287 kts
2026-05-04 18:44 43.45587 -1.95522 7986 ft 288 kts 21°
2026-05-04 18:44 43.47598 -1.93171 7138 ft 287 kts 57°
2026-05-04 18:44 43.48573 -1.90775 6456 ft 286 kts 60°
2026-05-04 18:45 43.49523 -1.88381 5837 ft 283 kts 59°
2026-05-04 18:45 43.50462 -1.86014 5197 ft 280 kts 59°
2026-05-04 18:45 43.51389 -1.83679 4908 ft 277 kts 59°
2026-05-04 18:45 43.52294 -1.81392 4747 ft 263 kts 59°
2026-05-04 18:46 43.53132 -1.79271 4616 ft 241 kts 58°
2026-05-04 18:46 43.53901 -1.77327 4515 ft 222 kts 58°
2026-05-04 18:46 43.54446 -1.75419 4410 ft 210 kts 79°
2026-05-04 18:46 43.54339 -1.73448 4263 ft 208 kts 107°
2026-05-04 18:47 43.53595 -1.71725 3936 ft 212 kts 130°
2026-05-04 18:47 43.52661 -1.70162 3613 ft 212 kts 129°
2026-05-04 18:47 43.51732 -1.68592 3280 ft 211 kts 129°
2026-05-04 18:47 43.50819 -1.67047 2967 ft 209 kts 129°
2026-05-04 18:48 43.49770 -1.65714 2654 ft 204 kts 155°
2026-05-04 18:48 43.48428 -1.65446 2407 ft 190 kts 194°
2026-05-04 18:48 43.47317 -1.66193 2367 ft 172 kts 223°
2026-05-04 18:48 43.46399 -1.67212 2311 ft 168 kts 223°
2026-05-04 18:49 43.45495 -1.68206 2237 ft 166 kts 223°
2026-05-04 18:49 43.44600 -1.69196 2164 ft 165 kts 223°
2026-05-04 18:49 43.43713 -1.70177 2092 ft 159 kts 220°
2026-05-04 18:49 43.42871 -1.71104 1882 ft 150 kts 218°
2026-05-04 18:50 43.42094 -1.71959 1653 ft 137 kts 217°
2026-05-04 18:50 43.41365 -1.72761 1441 ft 133 kts 217°
2026-05-04 18:50 43.40642 -1.73542 1215 ft 131 kts 218°
2026-05-04 18:50 43.39929 -1.74325 1048 ft 131 kts 219°
2026-05-04 18:51 43.39221 -1.75111 858 ft 131 kts 219°
2026-05-04 18:51 43.38520 -1.75893 658 ft 130 kts 219°
2026-05-04 18:51 43.37814 -1.76664 475 ft 129 kts 218°
2026-05-04 18:51 43.37114 -1.77435 305 ft 129 kts 220°
2026-05-04 18:52 43.36420 -1.78214 117 ft 128 kts 220°
2026-05-04 18:52 43.35745 -1.78956 19 ft 113 kts 218°
2026-05-04 18:52 43.35341 -1.79398 20 ft 42 kts 219°
2026-05-04 18:52 43.35169 -1.79591 22 ft 16 kts 219°
2026-05-04 18:53 43.35097 -1.79684 22 ft 12 kts 242°
2026-05-04 18:53 43.35068 -1.79743 20 ft 6 kts 173°
2026-05-04 18:53 43.35076 -1.79691 21 ft 8 kts 44°
2026-05-04 18:53 43.35132 -1.79632 20 ft 12 kts 38°
2026-05-04 18:54 43.35209 -1.79548 22 ft 16 kts 39°
2026-05-04 18:54 43.35306 -1.79440 22 ft 20 kts 39°
2026-05-04 18:54 43.35418 -1.79315 21 ft 17 kts 39°
2026-05-04 18:54 43.35484 -1.79242 20 ft 8 kts 38°
2026-05-04 18:55 43.35530 -1.79263 18 ft 9 kts 310°
2026-05-04 18:55 43.35597 -1.79274 18 ft 3 kts 40°
2026-05-04 18:55 43.35599 -1.79272 17 ft 0 kts 39°